UR7D-10 Weather Reports


Display with metric or nautical units.
time (UTC)temp
F
wind
direction
speed
MPH
gust
MPH
rain 1hr
in
rain 24hr
in
rain mn
in
humidity
%
barometer
mb
20260507020843 59 100 0.0 0.0 0.00 0.00 0.00 72 1012.3
20260507010840 58 134 0.0 0.0 0.00 0.00 0.00 73 1011.9
20260507000836 59 170 0.0 0.0 0.00 0.00 0.00 70 1011.7
20260506230833 63 161 0.0 1.0 0.00 0.00 0.00 62 1011.7
20260506220829 68 347 0.0 1.0 0.00 0.00 0.00 52 1011.6
20260506210826 70 221 3.0 5.0 0.00 0.00 0.00 49 1011.8
20260506200822 72 143 5.0 8.0 0.00 0.00 0.00 46 1011.5
20260506190819 72 118 5.0 7.0 0.00 0.00 0.00 46 1011.7
20260506140803 78 175 3.0 7.0 0.00 0.00 0.00 39 1011.5
20260506130800 78 62 6.0 14.0 0.00 0.00 0.00 38 1012.0
20260506120756 78 248 5.0 15.0 0.00 0.00 0.00 39 1012.6
20260506110753 77 243 5.0 6.0 0.00 0.00 0.00 40 1013.0
20260506100749 75 143 7.0 12.0 0.00 0.00 0.00 41 1013.4
20260506090744 73 155 5.0 12.0 0.00 0.00 0.00 45 1013.5
20260506080741 70 196 4.0 8.0 0.00 0.00 0.00 49 1013.2
20260506070737 67 191 4.0 11.0 0.00 0.00 0.00 52 1013.4
20260506060734 62 238 3.0 8.0 0.00 0.00 0.00 55 1013.0
20260506050731 60 260 2.0 4.0 0.00 0.00 0.00 56 1012.7
20260506040727 54 289 0.0 0.0 0.00 0.00 0.00 64 1012.6
20260506030724 54 131 0.0 3.0 0.00 0.00 0.00 66 1012.1